POLYITAN-1

Last updated on Tue Jul 01 2025 00:03:44 GMT+0000 (Coordinated Universal Time)

1 40042U 14033AJ 25181.51540646 .00009478 00000+0 45531-3 0 9997 2 40042 98.1034 173.3269 0007804 291.3463 68.6936 15.19058667599969
UTC large
Height (km)
Speed (km/s)
/
Latitude / Longitude
Inclination (degrees)
Orbital Period (minutes)
Azimuth
Elevation
Range (km)
Doppler Factor

Next 0 passes for location: London (51.5072 / 0.1276)

Sorry there are no passes over London.